Tracking 21076 objects as of 10-Aug-2020
HD Live streaming from Space Station
objects crossing your sky now
Track the most recent launched group of Starlink satellites

COSMOS 1249 COOLANT

Track COSMOS 1249 COOLANT now!
10-day predictions


NORAD ID: 26505
Int'l Code: 1981-021G
Perigee: 885.4 km
Apogee: 976.1 km
Inclination: 65.0 °
Period: 103.5 minutes
Semi major axis: 7301 km
RCS: 0.0062 m2 (small)
Launch date: March 5, 1981
Source: Commonwealth of Independent States (former USSR) (CIS)
Launch site: TYURATAM MISSILE AND SPACE COMPLEX (TTMTR)

Note: This is SATELLITE DEBRIS
aabbcc
Your satellite tracking list
Your tracking list is empty




NASA's NSSDC Master Catalog

Two Line Element Set (TLE):
1 26505U 81021G   20183.43991128 -.00000029  00000-0  48100-4 0  9990
2 26505  64.9659 251.2902 0062103 240.6943 118.7906 13.91442249 37595
Source of the keplerian elements: AFSPC